Time,TemperatureF,DewpointF,PressureIn,WindDirection,WindDirectionDegrees,WindSpeedMPH,WindSpeedGustMPH,Humidity,HourlyPrecipIn,Conditions,Clouds,dailyrainin,SoftwareType,DateUTC
2013-05-26 00:01:00,44.3,37.2,30.21,WNW,294,2.0,2.0,76,0.00,,---,0.00,VWS V14.01,2013-05-26 04:01:00,
2013-05-26 00:06:00,44.3,37.2,30.21,NNW,328,1.0,3.0,76,0.00,,---,0.00,VWS V14.01,2013-05-26 04:06:00,
2013-05-26 00:11:00,44.3,37.2,30.22,NW,312,2.0,3.0,76,0.00,,---,0.00,VWS V14.01,2013-05-26 04:11:00,
2013-05-26 00:16:00,44.3,36.9,30.22,NW,312,0.0,0.0,75,0.00,,---,0.00,VWS V14.01,2013-05-26 04:16:00,
2013-05-26 00:21:00,44.3,36.9,30.21,NW,312,0.0,0.0,75,0.00,,---,0.00,VWS V14.01,2013-05-26 04:21:00,
2013-05-26 00:26:00,44.1,36.7,30.22,NW,312,0.0,1.0,75,0.00,,---,0.00,VWS V14.01,2013-05-26 04:26:00,
2013-05-26 00:31:00,44.0,36.9,30.22,NW,312,0.0,1.0,76,0.00,,---,0.00,VWS V14.01,2013-05-26 04:31:00,
2013-05-26 00:36:00,43.8,36.7,30.22,NW,312,1.0,1.0,76,0.00,,---,0.00,VWS V14.01,2013-05-26 04:36:00,
2013-05-26 00:41:00,43.6,36.9,30.22,NW,312,0.0,0.0,77,0.00,,---,0.00,VWS V14.01,2013-05-26 04:41:00,
2013-05-26 00:46:00,43.5,36.8,30.22,NW,317,0.0,0.0,77,0.00,,---,0.00,VWS V14.01,2013-05-26 04:46:00,
2013-05-26 00:51:00,43.4,36.7,30.22,NW,315,0.0,0.0,77,0.00,,---,0.00,VWS V14.01,2013-05-26 04:51:00,
2013-05-26 00:56:00,43.3,36.6,30.22,NW,315,0.0,0.0,77,0.00,,---,0.00,VWS V14.01,2013-05-26 04:56:00,
2013-05-26 01:01:00,43.2,36.5,30.22,North,355,2.0,2.0,77,0.00,,---,0.00,VWS V14.01,2013-05-26 05:01:00,
2013-05-26 01:06:00,43.3,36.6,30.22,North,5,2.0,2.0,77,0.00,,---,0.00,VWS V14.01,2013-05-26 05:06:00,
2013-05-26 01:11:00,43.3,36.6,30.23,SW,231,0.0,0.0,77,0.00,,---,0.00,VWS V14.01,2013-05-26 05:11:00,
2013-05-26 01:16:00,43.3,36.3,30.22,SW,231,0.0,1.0,76,0.00,,---,0.00,VWS V14.01,2013-05-26 05:16:00,
2013-05-26 01:21:00,43.3,36.6,30.23,ESE,113,0.0,1.0,77,0.00,,---,0.00,VWS V14.01,2013-05-26 05:21:00,
2013-05-26 01:26:00,43.2,36.5,30.22,SE,130,0.0,1.0,77,0.00,,---,0.00,VWS V14.01,2013-05-26 05:26:00,
2013-05-26 01:31:00,43.1,36.4,30.22,SE,127,0.0,0.0,77,0.00,,---,0.00,VWS V14.01,2013-05-26 05:31:00,
2013-05-26 01:36:00,43.1,36.4,30.22,SE,146,0.0,0.0,77,0.00,,---,0.00,VWS V14.01,2013-05-26 05:36:00,
2013-05-26 01:41:00,43.2,36.2,30.22,NE,50,0.0,0.0,76,0.00,,---,0.00,VWS V14.01,2013-05-26 05:41:00,
2013-05-26 01:46:00,43.3,35.9,30.22,WNW,302,1.0,1.0,75,0.00,,---,0.00,VWS V14.01,2013-05-26 05:46:00,
2013-05-26 01:51:00,43.4,36.3,30.22,WNW,302,0.0,0.0,76,0.00,,---,0.00,VWS V14.01,2013-05-26 05:51:00,
2013-05-26 01:56:00,43.4,36.7,30.22,WNW,302,1.0,2.0,77,0.00,,---,0.00,VWS V14.01,2013-05-26 05:56:00,
2013-05-26 02:01:00,43.3,36.3,30.22,SSE,147,1.0,1.0,76,0.00,,---,0.00,VWS V14.01,2013-05-26 06:01:00,
2013-05-26 02:06:00,43.4,36.0,30.23,SSE,147,0.0,1.0,75,0.00,,---,0.00,VWS V14.01,2013-05-26 06:06:00,
2013-05-26 02:11:00,43.5,36.1,30.22,SSE,160,1.0,1.0,75,0.00,,---,0.00,VWS V14.01,2013-05-26 06:11:00,
2013-05-26 02:16:00,43.6,35.9,30.23,South,175,3.0,3.0,74,0.00,,---,0.00,VWS V14.01,2013-05-26 06:16:00,
2013-05-26 02:21:00,43.7,36.3,30.22,SE,143,0.0,0.0,75,0.00,,---,0.00,VWS V14.01,2013-05-26 06:21:00,
2013-05-26 02:26:00,43.7,36.3,30.23,SE,143,1.0,1.0,75,0.00,,---,0.00,VWS V14.01,2013-05-26 06:26:00,
2013-05-26 02:31:00,43.5,36.5,30.23,SE,143,1.0,1.0,76,0.00,,---,0.00,VWS V14.01,2013-05-26 06:31:00,
2013-05-26 02:36:00,43.4,36.3,30.23,SE,143,1.0,1.0,76,0.00,,---,0.00,VWS V14.01,2013-05-26 06:36:00,
2013-05-26 02:41:00,43.1,36.1,30.22,SE,143,2.0,3.0,76,0.00,,---,0.00,VWS V14.01,2013-05-26 06:41:00,
2013-05-26 02:46:00,42.9,36.2,30.23,SE,143,0.0,0.0,77,0.00,,---,0.00,VWS V14.01,2013-05-26 06:46:00,
2013-05-26 02:51:00,42.9,36.2,30.23,East,92,2.0,2.0,77,0.00,,---,0.00,VWS V14.01,2013-05-26 06:51:00,
2013-05-26 02:56:00,42.9,36.2,30.23,ESE,105,0.0,0.0,77,0.00,,---,0.00,VWS V14.01,2013-05-26 06:56:00,
2013-05-26 03:01:00,42.8,36.1,30.23,ESE,105,0.0,0.0,77,0.00,,---,0.00,VWS V14.01,2013-05-26 07:01:00,
2013-05-26 03:06:00,42.6,36.2,30.22,ESE,105,1.0,1.0,78,0.00,,---,0.00,VWS V14.01,2013-05-26 07:06:00,
2013-05-26 03:11:00,42.4,36.0,30.22,ESE,105,2.0,2.0,78,0.00,,---,0.00,VWS V14.01,2013-05-26 07:11:00,
2013-05-26 03:16:00,42.3,36.3,30.22,ESE,105,1.0,2.0,79,0.00,,---,0.00,VWS V14.01,2013-05-26 07:16:00,
2013-05-26 03:21:00,42.0,36.0,30.23,SE,132,0.0,0.0,79,0.00,,---,0.00,VWS V14.01,2013-05-26 07:21:00,
2013-05-26 03:26:00,42.0,35.7,30.23,SE,140,1.0,1.0,78,0.00,,---,0.00,VWS V14.01,2013-05-26 07:26:00,
2013-05-26 03:31:00,42.0,36.0,30.23,SE,140,2.0,3.0,79,0.00,,---,0.00,VWS V14.01,2013-05-26 07:31:00,
2013-05-26 03:36:00,42.0,36.0,30.23,SE,140,2.0,2.0,79,0.00,,---,0.00,VWS V14.01,2013-05-26 07:36:00,
2013-05-26 03:41:00,41.8,35.8,30.23,SE,140,0.0,0.0,79,0.00,,---,0.00,VWS V14.01,2013-05-26 07:41:00,
2013-05-26 03:46:00,41.8,36.1,30.23,SE,140,2.0,2.0,80,0.00,,---,0.00,VWS V14.01,2013-05-26 07:46:00,
2013-05-26 03:51:00,41.7,35.7,30.23,SE,140,0.0,0.0,79,0.00,,---,0.00,VWS V14.01,2013-05-26 07:51:00,
2013-05-26 03:56:00,41.9,35.9,30.23,SE,140,0.0,0.0,79,0.00,,---,0.00,VWS V14.01,2013-05-26 07:56:00,
2013-05-26 04:01:00,42.0,35.3,30.22,SSE,164,0.0,0.0,77,0.00,,---,0.00,VWS V14.01,2013-05-26 08:01:00,
2013-05-26 04:06:00,42.2,35.5,30.23,SSE,164,2.0,2.0,77,0.00,,---,0.00,VWS V14.01,2013-05-26 08:06:00,
2013-05-26 04:11:00,42.1,35.8,30.23,SSE,164,1.0,2.0,78,0.00,,---,0.00,VWS V14.01,2013-05-26 08:11:00,
2013-05-26 04:16:00,41.9,35.5,30.23,SSE,164,1.0,1.0,78,0.00,,---,0.00,VWS V14.01,2013-05-26 08:16:00,
2013-05-26 04:21:00,41.6,35.3,30.23,SSE,164,2.0,2.0,78,0.00,,---,0.00,VWS V14.01,2013-05-26 08:21:00,
2013-05-26 04:26:00,41.6,35.3,30.23,SE,140,0.0,0.0,78,0.00,,---,0.00,VWS V14.01,2013-05-26 08:26:00,
2013-05-26 04:31:00,41.6,35.3,30.23,SE,140,1.0,1.0,78,0.00,,---,0.00,VWS V14.01,2013-05-26 08:31:00,
2013-05-26 04:36:00,41.4,35.4,30.23,SE,140,1.0,1.0,79,0.00,,---,0.00,VWS V14.01,2013-05-26 08:36:00,
2013-05-26 04:41:00,41.3,35.0,30.23,SE,140,1.0,1.0,78,0.00,,---,0.00,VWS V14.01,2013-05-26 08:41:00,
2013-05-26 04:46:00,41.2,35.2,30.23,SE,140,3.0,3.0,79,0.00,,---,0.00,VWS V14.01,2013-05-26 08:46:00,
2013-05-26 04:51:00,41.2,35.5,30.24,SE,140,0.0,0.0,80,0.00,,---,0.00,VWS V14.01,2013-05-26 08:51:00,
2013-05-26 04:56:00,41.2,35.2,30.24,SE,140,1.0,2.0,79,0.00,,---,0.00,VWS V14.01,2013-05-26 08:56:00,
2013-05-26 05:01:00,41.1,35.1,30.24,SE,140,2.0,2.0,79,0.00,,---,0.00,VWS V14.01,2013-05-26 09:01:00,
2013-05-26 05:06:00,41.0,34.7,30.24,SSE,151,1.0,1.0,78,0.00,,---,0.00,VWS V14.01,2013-05-26 09:06:00,
2013-05-26 05:11:00,41.0,34.7,30.24,SSE,151,3.0,3.0,78,0.00,,---,0.00,VWS V14.01,2013-05-26 09:11:00,
2013-05-26 05:16:00,41.3,35.0,30.24,SSE,151,0.0,0.0,78,0.00,,---,0.00,VWS V14.01,2013-05-26 09:16:00,
2013-05-26 05:21:00,41.5,34.8,30.24,SSE,151,0.0,0.0,77,0.00,,---,0.00,VWS V14.01,2013-05-26 09:21:00,
2013-05-26 05:26:00,41.4,34.4,30.24,SSE,151,0.0,0.0,76,0.00,,---,0.00,VWS V14.01,2013-05-26 09:26:00,
2013-05-26 05:31:00,41.4,34.7,30.24,SSE,151,0.0,0.0,77,0.00,,---,0.00,VWS V14.01,2013-05-26 09:31:00,
2013-05-26 05:36:00,41.2,34.9,30.24,SSE,151,0.0,0.0,78,0.00,,---,0.00,VWS V14.01,2013-05-26 09:36:00,
2013-05-26 05:41:00,40.9,34.9,30.24,SE,134,1.0,1.0,79,0.00,,---,0.00,VWS V14.01,2013-05-26 09:41:00,
2013-05-26 05:46:00,40.6,34.3,30.24,SE,134,0.0,1.0,78,0.00,,---,0.00,VWS V14.01,2013-05-26 09:46:00,
2013-05-26 05:51:00,40.6,34.3,30.24,NNE,28,0.0,0.0,78,0.00,,---,0.00,VWS V14.01,2013-05-26 09:51:00,
2013-05-26 05:55:00,40.9,34.3,30.24,NNE,30,1.0,1.0,77,0.00,,---,0.00,VWS V14.01,2013-05-26 09:55:00,
2013-05-26 06:00:00,41.1,34.5,30.25,North,5,0.0,0.0,77,0.00,,---,0.00,VWS V14.01,2013-05-26 10:00:00,
2013-05-26 06:05:00,41.1,34.8,30.25,West,272,3.0,3.0,78,0.00,,---,0.00,VWS V14.01,2013-05-26 10:05:00,
2013-05-26 06:10:00,40.9,34.6,30.25,West,272,0.0,0.0,78,0.00,,---,0.00,VWS V14.01,2013-05-26 10:10:00,
2013-05-26 06:15:00,40.8,34.8,30.25,West,272,0.0,0.0,79,0.00,,---,0.00,VWS V14.01,2013-05-26 10:15:00,
2013-05-26 06:20:00,40.6,34.6,30.25,West,272,0.0,1.0,79,0.00,,---,0.00,VWS V14.01,2013-05-26 10:20:00,
2013-05-26 06:25:00,40.3,34.6,30.25,West,272,0.0,1.0,80,0.00,,---,0.00,VWS V14.01,2013-05-26 10:25:00,
2013-05-26 06:30:00,40.1,34.8,30.25,West,272,0.0,3.0,81,0.00,,---,0.00,VWS V14.01,2013-05-26 10:30:00,
2013-05-26 06:35:00,40.0,34.7,30.25,West,272,0.0,0.0,81,0.00,,---,0.00,VWS V14.01,2013-05-26 10:35:00,
2013-05-26 06:40:00,40.1,34.4,30.25,WNW,293,1.0,3.0,80,0.00,,---,0.00,VWS V14.01,2013-05-26 10:40:00,
2013-05-26 06:45:00,40.3,34.6,30.25,WNW,293,0.0,0.0,80,0.00,,---,0.00,VWS V14.01,2013-05-26 10:45:00,
2013-05-26 06:50:00,40.3,34.6,30.26,WNW,293,0.0,0.0,80,0.00,,---,0.00,VWS V14.01,2013-05-26 10:50:00,
2013-05-26 06:55:00,40.3,34.3,30.26,WNW,293,1.0,2.0,79,0.00,,---,0.00,VWS V14.01,2013-05-26 10:55:00,
2013-05-26 07:00:00,40.4,34.4,30.26,WNW,293,0.0,3.0,79,0.00,,---,0.00,VWS V14.01,2013-05-26 11:00:00,
2013-05-26 07:05:00,40.5,34.2,30.25,WNW,293,1.0,1.0,78,0.00,,---,0.00,VWS V14.01,2013-05-26 11:05:00,
2013-05-26 07:10:00,40.7,34.4,30.26,NW,313,0.0,4.0,78,0.00,,---,0.00,VWS V14.01,2013-05-26 11:10:00,
2013-05-26 07:15:00,40.9,34.6,30.26,NW,313,2.0,4.0,78,0.00,,---,0.00,VWS V14.01,2013-05-26 11:15:00,
2013-05-26 07:20:00,41.1,34.5,30.26,North,5,0.0,2.0,77,0.00,,---,0.00,VWS V14.01,2013-05-26 11:20:00,
2013-05-26 07:25:00,41.4,34.7,30.26,NNW,329,1.0,2.0,77,0.00,,---,0.00,VWS V14.01,2013-05-26 11:25:00,
2013-05-26 07:30:00,41.8,34.8,30.26,NW,306,1.0,5.0,76,0.00,,---,0.00,VWS V14.01,2013-05-26 11:30:00,
2013-05-26 07:35:00,42.3,35.0,30.26,West,267,3.0,4.0,75,0.00,,---,0.00,VWS V14.01,2013-05-26 11:35:00,
2013-05-26 07:40:00,42.8,35.1,30.26,WSW,249,1.0,5.0,74,0.00,,---,0.00,VWS V14.01,2013-05-26 11:40:00,
2013-05-26 07:45:00,43.3,34.9,30.26,West,278,5.0,8.0,72,0.00,,---,0.00,VWS V14.01,2013-05-26 11:45:00,
2013-05-26 07:50:00,44.1,35.3,30.26,West,279,3.0,4.0,71,0.00,,---,0.00,VWS V14.01,2013-05-26 11:50:00,
2013-05-26 07:55:00,45.1,35.5,30.26,NW,317,3.0,6.0,69,0.00,,---,0.00,VWS V14.01,2013-05-26 11:55:00,
2013-05-26 08:00:00,45.8,35.5,30.26,WNW,297,5.0,6.0,67,0.00,,---,0.00,VWS V14.01,2013-05-26 12:00:00,
2013-05-26 08:05:00,46.4,35.7,30.26,West,261,8.0,8.0,66,0.00,,---,0.00,VWS V14.01,2013-05-26 12:05:00,
2013-05-26 08:10:00,46.9,35.8,30.26,WNW,293,3.0,6.0,65,0.00,,---,0.00,VWS V14.01,2013-05-26 12:10:00,
2013-05-26 08:15:00,47.5,35.9,30.26,WNW,292,4.0,4.0,64,0.00,,---,0.00,VWS V14.01,2013-05-26 12:15:00,
2013-05-26 08:20:00,48.1,36.5,30.26,NW,312,5.0,7.0,64,0.00,,---,0.00,VWS V14.01,2013-05-26 12:20:00,
2013-05-26 08:25:00,48.7,36.7,30.26,WNW,284,3.0,6.0,63,0.00,,---,0.00,VWS V14.01,2013-05-26 12:25:00,
2013-05-26 08:30:00,49.2,37.2,30.26,WNW,291,4.0,7.0,63,0.00,,---,0.00,VWS V14.01,2013-05-26 12:30:00,
2013-05-26 08:35:00,49.9,37.0,30.26,WNW,288,2.0,7.0,61,0.00,,---,0.00,VWS V14.01,2013-05-26 12:35:00,
2013-05-26 08:40:00,50.5,38.0,30.26,NW,306,4.0,8.0,62,0.00,,---,0.00,VWS V14.01,2013-05-26 12:40:00,
2013-05-26 08:45:00,50.9,38.8,30.26,NNW,329,3.0,4.0,63,0.00,,---,0.00,VWS V14.01,2013-05-26 12:45:00,
2013-05-26 08:50:00,51.3,37.9,30.25,NW,313,4.0,4.0,60,0.00,,---,0.00,VWS V14.01,2013-05-26 12:50:00,
2013-05-26 08:55:00,51.7,38.7,30.25,WNW,292,4.0,6.0,61,0.00,,---,0.00,VWS V14.01,2013-05-26 12:55:00,
2013-05-26 09:00:00,52.6,40.0,30.25,NW,322,3.0,8.0,62,0.00,,---,0.00,VWS V14.01,2013-05-26 13:00:00,
2013-05-26 09:05:00,52.8,39.3,30.25,West,274,6.0,12.0,60,0.00,,---,0.00,VWS V14.01,2013-05-26 13:05:00,
2013-05-26 09:10:00,53.1,39.2,30.26,North,5,3.0,6.0,59,0.00,,---,0.00,VWS V14.01,2013-05-26 13:10:00,
2013-05-26 09:15:00,53.7,38.8,30.26,NW,315,5.0,8.0,57,0.00,,---,0.00,VWS V14.01,2013-05-26 13:15:00,
2013-05-26 09:20:00,53.7,38.8,30.26,NNW,330,5.0,7.0,57,0.00,,---,0.00,VWS V14.01,2013-05-26 13:20:00,
2013-05-26 09:25:00,54.2,40.6,30.25,WNW,288,2.0,4.0,60,0.00,,---,0.00,VWS V14.01,2013-05-26 13:25:00,
2013-05-26 09:30:00,55.1,40.2,30.26,West,261,6.0,6.0,57,0.00,,---,0.00,VWS V14.01,2013-05-26 13:30:00,
2013-05-26 09:35:00,55.5,39.1,30.26,NW,304,5.0,7.0,54,0.00,,---,0.00,VWS V14.01,2013-05-26 13:35:00,
2013-05-26 09:40:00,55.5,39.1,30.25,NW,322,5.0,6.0,54,0.00,,---,0.00,VWS V14.01,2013-05-26 13:40:00,
2013-05-26 09:45:00,55.6,40.2,30.25,NW,319,4.0,9.0,56,0.00,,---,0.00,VWS V14.01,2013-05-26 13:45:00,
2013-05-26 09:50:00,56.0,38.6,30.25,NW,312,5.0,8.0,52,0.00,,---,0.00,VWS V14.01,2013-05-26 13:50:00,
2013-05-26 09:55:00,56.4,40.0,30.25,WNW,295,3.0,5.0,54,0.00,,---,0.00,VWS V14.01,2013-05-26 13:55:00,
2013-05-26 10:00:00,56.7,38.8,30.25,NW,315,4.0,5.0,51,0.00,,---,0.00,VWS V14.01,2013-05-26 14:00:00,
2013-05-26 10:05:00,56.6,39.7,30.25,NW,309,7.0,9.0,53,0.00,,---,0.00,VWS V14.01,2013-05-26 14:05:00,
2013-05-26 10:10:00,56.8,40.3,30.25,NW,313,3.0,9.0,54,0.00,,---,0.00,VWS V14.01,2013-05-26 14:10:00,
2013-05-26 10:15:00,57.5,41.5,30.25,West,267,3.0,7.0,55,0.00,,---,0.00,VWS V14.01,2013-05-26 14:15:00,
2013-05-26 10:20:00,58.2,39.2,30.25,WNW,297,4.0,7.0,49,0.00,,---,0.00,VWS V14.01,2013-05-26 14:20:00,
2013-05-26 10:25:00,58.6,40.5,30.24,NNE,33,7.0,11.0,51,0.00,,---,0.00,VWS V14.01,2013-05-26 14:25:00,
2013-05-26 10:30:00,58.5,36.7,30.24,NNW,337,4.0,7.0,44,0.00,,---,0.00,VWS V14.01,2013-05-26 14:30:00,
2013-05-26 10:35:00,57.5,34.6,30.24,NE,37,5.0,8.0,42,0.00,,---,0.00,VWS V14.01,2013-05-26 14:35:00,
2013-05-26 10:40:00,57.6,39.1,30.24,NNE,13,8.0,12.0,50,0.00,,---,0.00,VWS V14.01,2013-05-26 14:40:00,
2013-05-26 10:45:00,58.1,38.0,30.24,WSW,246,5.0,8.0,47,0.00,,---,0.00,VWS V14.01,2013-05-26 14:45:00,
2013-05-26 10:50:00,58.8,38.1,30.24,NNW,338,5.0,7.0,46,0.00,,---,0.00,VWS V14.01,2013-05-26 14:50:00,
2013-05-26 10:55:00,58.8,37.0,30.24,NW,324,6.0,8.0,44,0.00,,---,0.00,VWS V14.01,2013-05-26 14:55:00,
2013-05-26 11:00:00,59.0,37.1,30.24,NNW,331,5.0,9.0,44,0.00,,---,0.00,VWS V14.01,2013-05-26 15:00:00,
2013-05-26 11:05:00,59.1,37.8,30.24,West,271,4.0,9.0,45,0.00,,---,0.00,VWS V14.01,2013-05-26 15:05:00,
2013-05-26 11:10:00,59.5,37.6,30.24,NW,317,5.0,14.0,44,0.00,,---,0.00,VWS V14.01,2013-05-26 15:10:00,
2013-05-26 11:15:00,59.8,39.0,30.24,SW,221,7.0,7.0,46,0.00,,---,0.00,VWS V14.01,2013-05-26 15:15:00,
2013-05-26 11:20:00,60.3,38.3,30.24,WNW,300,6.0,9.0,44,0.00,,---,0.00,VWS V14.01,2013-05-26 15:20:00,
2013-05-26 11:25:00,60.5,37.3,30.24,WNW,294,6.0,11.0,42,0.00,,---,0.00,VWS V14.01,2013-05-26 15:25:00,
2013-05-26 11:30:00,60.6,38.6,30.24,NW,313,3.0,6.0,44,0.00,,---,0.00,VWS V14.01,2013-05-26 15:30:00,
2013-05-26 11:35:00,61.2,38.0,30.24,North,5,11.0,11.0,42,0.00,,---,0.00,VWS V14.01,2013-05-26 15:35:00,
2013-05-26 11:40:00,61.3,40.4,30.24,NW,315,5.0,5.0,46,0.00,,---,0.00,VWS V14.01,2013-05-26 15:40:00,
2013-05-26 11:45:00,61.6,38.3,30.25,NNW,338,5.0,10.0,42,0.00,,---,0.00,VWS V14.01,2013-05-26 15:45:00,
2013-05-26 11:50:00,62.0,38.7,30.24,NW,319,4.0,8.0,42,0.00,,---,0.00,VWS V14.01,2013-05-26 15:50:00,
2013-05-26 11:55:00,61.7,39.6,30.24,North,351,7.0,9.0,44,0.00,,---,0.00,VWS V14.01,2013-05-26 15:55:00,
2013-05-26 12:00:00,61.7,37.8,30.24,West,264,12.0,12.0,41,0.00,,---,0.00,VWS V14.01,2013-05-26 16:00:00,
2013-05-26 12:05:00,62.0,39.9,30.25,West,277,9.0,10.0,44,0.00,,---,0.00,VWS V14.01,2013-05-26 16:05:00,
2013-05-26 12:10:00,62.1,36.9,30.24,North,355,6.0,6.0,39,0.00,,---,0.00,VWS V14.01,2013-05-26 16:10:00,
2013-05-26 12:15:00,62.0,39.9,30.24,WNW,286,3.0,6.0,44,0.00,,---,0.00,VWS V14.01,2013-05-26 16:15:00,
2013-05-26 12:20:00,62.2,38.8,30.24,WSW,241,7.0,10.0,42,0.00,,---,0.00,VWS V14.01,2013-05-26 16:20:00,
2013-05-26 12:25:00,62.5,37.2,30.24,NNW,346,3.0,7.0,39,0.00,,---,0.00,VWS V14.01,2013-05-26 16:25:00,
2013-05-26 12:30:00,62.6,38.0,30.23,NNW,333,6.0,11.0,40,0.00,,---,0.00,VWS V14.01,2013-05-26 16:30:00,
2013-05-26 12:35:00,62.7,38.7,30.23,NW,323,8.0,14.0,41,0.00,,---,0.00,VWS V14.01,2013-05-26 16:35:00,
2013-05-26 12:40:00,62.6,39.2,30.23,WNW,296,4.0,6.0,42,0.00,,---,0.00,VWS V14.01,2013-05-26 16:40:00,
2013-05-26 12:45:00,62.9,36.9,30.22,WNW,283,3.0,4.0,38,0.00,,---,0.00,VWS V14.01,2013-05-26 16:45:00,
2013-05-26 12:50:00,63.5,38.1,30.23,WNW,288,5.0,8.0,39,0.00,,---,0.00,VWS V14.01,2013-05-26 16:50:00,
2013-05-26 12:55:00,63.9,33.5,30.23,NNE,22,5.0,5.0,32,0.00,,---,0.00,VWS V14.01,2013-05-26 16:55:00,
2013-05-26 13:00:00,63.7,36.3,30.23,NW,306,7.0,13.0,36,0.00,,---,0.00,VWS V14.01,2013-05-26 17:00:00,
2013-05-26 13:05:00,63.6,35.5,30.23,NW,314,4.0,10.0,35,0.00,,---,0.00,VWS V14.01,2013-05-26 17:05:00,
2013-05-26 13:10:00,64.0,35.1,30.22,NW,315,3.0,6.0,34,0.00,,---,0.00,VWS V14.01,2013-05-26 17:10:00,
2013-05-26 13:15:00,64.5,35.5,30.22,WNW,298,3.0,4.0,34,0.00,,---,0.00,VWS V14.01,2013-05-26 17:15:00,
2013-05-26 13:20:00,64.6,36.3,30.22,West,279,10.0,12.0,35,0.00,,---,0.00,VWS V14.01,2013-05-26 17:20:00,
2013-05-26 13:25:00,64.7,37.8,30.22,West,279,5.0,6.0,37,0.00,,---,0.00,VWS V14.01,2013-05-26 17:25:00,
2013-05-26 13:30:00,65.0,37.4,30.22,WSW,238,6.0,6.0,36,0.00,,---,0.00,VWS V14.01,2013-05-26 17:30:00,
2013-05-26 13:35:00,64.8,37.2,30.21,WNW,301,13.0,13.0,36,0.00,,---,0.00,VWS V14.01,2013-05-26 17:35:00,
2013-05-26 13:40:00,64.7,35.7,30.21,WNW,298,3.0,8.0,34,0.00,,---,0.00,VWS V14.01,2013-05-26 17:40:00,
2013-05-26 13:45:00,65.3,40.4,30.21,West,271,6.0,7.0,40,0.00,,---,0.00,VWS V14.01,2013-05-26 17:45:00,
2013-05-26 13:50:00,65.3,34.7,30.21,West,280,5.0,7.0,32,0.00,,---,0.00,VWS V14.01,2013-05-26 17:50:00,
2013-05-26 13:55:00,64.7,35.0,30.21,West,270,5.0,8.0,33,0.00,,---,0.00,VWS V14.01,2013-05-26 17:55:00,
2013-05-26 14:00:00,64.3,36.1,30.21,WNW,302,7.0,8.0,35,0.00,,---,0.00,VWS V14.01,2013-05-26 18:00:00,
2013-05-26 14:05:00,65.0,40.1,30.21,WNW,284,4.0,4.0,40,0.00,,---,0.00,VWS V14.01,2013-05-26 18:05:00,
2013-05-26 14:10:00,65.2,38.3,30.21,NW,325,3.0,6.0,37,0.00,,---,0.00,VWS V14.01,2013-05-26 18:10:00,
2013-05-26 14:15:00,65.4,39.8,30.21,West,281,3.0,5.0,39,0.00,,---,0.00,VWS V14.01,2013-05-26 18:15:00,
2013-05-26 14:20:00,65.2,36.2,30.21,West,274,2.0,5.0,34,0.00,,---,0.00,VWS V14.01,2013-05-26 18:20:00,
2013-05-26 14:25:00,64.9,38.0,30.21,NNE,12,6.0,11.0,37,0.00,,---,0.00,VWS V14.01,2013-05-26 18:25:00,
2013-05-26 14:30:00,64.9,39.4,30.21,WNW,296,3.0,6.0,39,0.00,,---,0.00,VWS V14.01,2013-05-26 18:30:00,
2013-05-26 14:35:00,65.4,37.8,30.21,North,355,9.0,9.0,36,0.00,,---,0.00,VWS V14.01,2013-05-26 18:35:00,
2013-05-26 14:40:00,65.3,39.7,30.20,WNW,296,4.0,8.0,39,0.00,,---,0.00,VWS V14.01,2013-05-26 18:40:00,
2013-05-26 14:45:00,65.7,39.4,30.20,WSW,256,13.0,13.0,38,0.00,,---,0.00,VWS V14.01,2013-05-26 18:45:00,
2013-05-26 14:50:00,65.9,39.6,30.20,WNW,294,5.0,5.0,38,0.00,,---,0.00,VWS V14.01,2013-05-26 18:50:00,
2013-05-26 14:55:00,66.0,40.4,30.20,WNW,289,4.0,10.0,39,0.00,,---,0.00,VWS V14.01,2013-05-26 18:55:00,
2013-05-26 15:00:00,66.1,42.4,30.20,NNW,333,5.0,9.0,42,0.00,,---,0.00,VWS V14.01,2013-05-26 19:00:00,
2013-05-26 15:05:00,66.0,39.0,30.20,NW,322,2.0,5.0,37,0.00,,---,0.00,VWS V14.01,2013-05-26 19:05:00,
2013-05-26 15:10:00,66.3,41.3,30.20,West,270,3.0,6.0,40,0.00,,---,0.00,VWS V14.01,2013-05-26 19:10:00,
2013-05-26 15:15:00,66.3,41.9,30.20,NW,314,4.0,5.0,41,0.00,,---,0.00,VWS V14.01,2013-05-26 19:15:00,
2013-05-26 15:20:00,66.3,40.6,30.20,WNW,297,7.0,7.0,39,0.00,,---,0.00,VWS V14.01,2013-05-26 19:20:00,
2013-05-26 15:25:00,66.1,43.0,30.20,WNW,287,6.0,10.0,43,0.00,,---,0.00,VWS V14.01,2013-05-26 19:25:00,
2013-05-26 15:30:00,66.5,40.8,30.19,NNW,331,7.0,7.0,39,0.00,,---,0.00,VWS V14.01,2013-05-26 19:30:00,
2013-05-26 15:35:00,65.8,38.8,30.19,North,350,14.0,14.0,37,0.00,,---,0.00,VWS V14.01,2013-05-26 19:35:00,
2013-05-26 15:40:00,65.5,40.6,30.19,WNW,296,4.0,6.0,40,0.00,,---,0.00,VWS V14.01,2013-05-26 19:40:00,
2013-05-26 15:45:00,65.7,40.7,30.19,WNW,290,7.0,8.0,40,0.00,,---,0.00,VWS V14.01,2013-05-26 19:45:00,
2013-05-26 15:50:00,65.8,42.7,30.19,WSW,247,3.0,4.0,43,0.00,,---,0.00,VWS V14.01,2013-05-26 19:50:00,
2013-05-26 15:55:00,66.3,42.5,30.19,North,355,6.0,9.0,42,0.00,,---,0.00,VWS V14.01,2013-05-26 19:55:00,
2013-05-26 16:00:00,66.5,43.3,30.18,NW,304,3.0,6.0,43,0.00,,---,0.00,VWS V14.01,2013-05-26 20:00:00,
2013-05-26 16:05:00,66.4,41.4,30.19,NW,310,5.0,7.0,40,0.00,,---,0.00,VWS V14.01,2013-05-26 20:05:00,
2013-05-26 16:10:00,66.0,39.0,30.19,NW,315,6.0,6.0,37,0.00,,---,0.00,VWS V14.01,2013-05-26 20:10:00,
2013-05-26 16:15:00,66.0,41.0,30.18,West,279,4.0,6.0,40,0.00,,---,0.00,VWS V14.01,2013-05-26 20:15:00,
2013-05-26 16:20:00,66.6,42.2,30.18,West,279,5.0,7.0,41,0.00,,---,0.00,VWS V14.01,2013-05-26 20:20:00,
2013-05-26 16:25:00,66.8,43.0,30.18,WNW,284,4.0,9.0,42,0.00,,---,0.00,VWS V14.01,2013-05-26 20:25:00,
2013-05-26 16:30:00,66.9,41.8,30.18,West,267,3.0,3.0,40,0.00,,---,0.00,VWS V14.01,2013-05-26 20:30:00,
2013-05-26 16:35:00,67.0,41.2,30.18,SW,221,6.0,6.0,39,0.00,,---,0.00,VWS V14.01,2013-05-26 20:35:00,
2013-05-26 16:40:00,67.0,43.8,30.18,West,275,6.0,8.0,43,0.00,,---,0.00,VWS V14.01,2013-05-26 20:40:00,
2013-05-26 16:45:00,67.1,42.0,30.18,NNE,13,7.0,7.0,40,0.00,,---,0.00,VWS V14.01,2013-05-26 20:45:00,
2013-05-26 16:50:00,66.8,39.7,30.18,North,355,4.0,5.0,37,0.00,,---,0.00,VWS V14.01,2013-05-26 20:50:00,
2013-05-26 16:55:00,66.3,41.9,30.18,WNW,291,6.0,6.0,41,0.00,,---,0.00,VWS V14.01,2013-05-26 20:55:00,
2013-05-26 17:00:00,66.6,40.2,30.18,NNW,338,4.0,6.0,38,0.00,,---,0.00,VWS V14.01,2013-05-26 21:00:00,
2013-05-26 17:05:00,66.6,40.2,30.18,NW,306,7.0,9.0,38,0.00,,---,0.00,VWS V14.01,2013-05-26 21:05:00,
2013-05-26 17:10:00,66.4,42.0,30.18,WNW,292,6.0,6.0,41,0.00,,---,0.00,VWS V14.01,2013-05-26 21:10:00,
2013-05-26 17:15:00,66.5,40.1,30.18,NNW,336,6.0,7.0,38,0.00,,---,0.00,VWS V14.01,2013-05-26 21:15:00,
2013-05-26 17:20:00,66.5,42.1,30.17,NW,306,6.0,7.0,41,0.00,,---,0.00,VWS V14.01,2013-05-26 21:20:00,
2013-05-26 17:25:00,66.5,40.8,30.18,NW,305,7.0,7.0,39,0.00,,---,0.00,VWS V14.01,2013-05-26 21:25:00,
2013-05-26 17:30:00,66.2,40.5,30.18,NNW,346,4.0,6.0,39,0.00,,---,0.00,VWS V14.01,2013-05-26 21:30:00,
2013-05-26 17:35:00,66.0,39.7,30.18,NW,324,2.0,3.0,38,0.00,,---,0.00,VWS V14.01,2013-05-26 21:35:00,
2013-05-26 17:40:00,65.8,38.8,30.18,NNW,333,4.0,4.0,37,0.00,,---,0.00,VWS V14.01,2013-05-26 21:40:00,
2013-05-26 17:45:00,65.7,39.4,30.18,North,5,7.0,10.0,38,0.00,,---,0.00,VWS V14.01,2013-05-26 21:45:00,
2013-05-26 17:50:00,65.5,39.9,30.18,NNW,327,4.0,6.0,39,0.00,,---,0.00,VWS V14.01,2013-05-26 21:50:00,
2013-05-26 17:55:00,65.6,40.0,30.18,North,5,6.0,10.0,39,0.00,,---,0.00,VWS V14.01,2013-05-26 21:55:00,
2013-05-26 18:00:00,65.5,39.2,30.18,NW,325,8.0,8.0,38,0.00,,---,0.00,VWS V14.01,2013-05-26 22:00:00,
2013-05-26 18:05:00,65.8,40.2,30.18,NW,323,3.0,3.0,39,0.00,,---,0.00,VWS V14.01,2013-05-26 22:05:00,
2013-05-26 18:10:00,66.1,42.4,30.18,NW,306,7.0,7.0,42,0.00,,---,0.00,VWS V14.01,2013-05-26 22:10:00,
2013-05-26 18:15:00,66.1,41.7,30.18,WNW,287,8.0,8.0,41,0.00,,---,0.00,VWS V14.01,2013-05-26 22:15:00,
2013-05-26 18:20:00,66.0,39.0,30.18,NNW,336,6.0,7.0,37,0.00,,---,0.00,VWS V14.01,2013-05-26 22:20:00,
2013-05-26 18:25:00,65.7,39.4,30.17,NW,304,5.0,6.0,38,0.00,,---,0.00,VWS V14.01,2013-05-26 22:25:00,
2013-05-26 18:30:00,65.6,40.7,30.18,NW,326,5.0,6.0,40,0.00,,---,0.00,VWS V14.01,2013-05-26 22:30:00,
2013-05-26 18:35:00,65.6,41.3,30.18,WNW,302,3.0,5.0,41,0.00,,---,0.00,VWS V14.01,2013-05-26 22:35:00,
2013-05-26 18:40:00,65.6,40.0,30.18,NNW,334,7.0,9.0,39,0.00,,---,0.00,VWS V14.01,2013-05-26 22:40:00,
2013-05-26 18:45:00,65.3,40.4,30.18,North,350,5.0,5.0,40,0.00,,---,0.00,VWS V14.01,2013-05-26 22:45:00,
2013-05-26 18:50:00,65.1,40.2,30.18,NNW,344,4.0,7.0,40,0.00,,---,0.00,VWS V14.01,2013-05-26 22:50:00,
2013-05-26 18:55:00,65.0,38.8,30.18,NNW,331,4.0,4.0,38,0.00,,---,0.00,VWS V14.01,2013-05-26 22:55:00,
2013-05-26 19:00:00,64.5,38.3,30.18,NNE,23,6.0,6.0,38,0.00,,---,0.00,VWS V14.01,2013-05-26 23:00:00,
2013-05-26 19:05:00,64.2,38.8,30.18,NW,311,3.0,4.0,39,0.00,,---,0.00,VWS V14.01,2013-05-26 23:05:00,
2013-05-26 19:10:00,64.1,38.7,30.18,NW,323,1.0,2.0,39,0.00,,---,0.00,VWS V14.01,2013-05-26 23:10:00,
2013-05-26 19:15:00,64.1,39.3,30.18,North,9,3.0,3.0,40,0.00,,---,0.00,VWS V14.01,2013-05-26 23:15:00,
2013-05-26 19:20:00,63.9,39.8,30.18,NW,309,4.0,5.0,41,0.00,,---,0.00,VWS V14.01,2013-05-26 23:20:00,
2013-05-26 19:25:00,63.6,39.5,30.18,WNW,293,1.0,1.0,41,0.00,,---,0.00,VWS V14.01,2013-05-26 23:25:00,
2013-05-26 19:30:00,63.4,40.5,30.18,NNW,329,2.0,2.0,43,0.00,,---,0.00,VWS V14.01,2013-05-26 23:30:00,
2013-05-26 19:35:00,63.1,39.0,30.18,WNW,286,4.0,4.0,41,0.00,,---,0.00,VWS V14.01,2013-05-26 23:35:00,
2013-05-26 19:40:00,62.7,38.7,30.18,NNW,328,5.0,7.0,41,0.00,,---,0.00,VWS V14.01,2013-05-26 23:40:00,
2013-05-26 19:45:00,62.4,39.0,30.18,NNE,17,3.0,4.0,42,0.00,,---,0.00,VWS V14.01,2013-05-26 23:45:00,
2013-05-26 19:50:00,62.0,39.3,30.19,NW,316,3.0,5.0,43,0.00,,---,0.00,VWS V14.01,2013-05-26 23:50:00,
2013-05-26 19:55:00,61.7,38.4,30.19,NNE,17,2.0,2.0,42,0.00,,---,0.00,VWS V14.01,2013-05-26 23:55:00,
2013-05-26 20:00:00,61.3,39.2,30.19,West,278,3.0,4.0,44,0.00,,---,0.00,VWS V14.01,2013-05-27 00:00:00,
2013-05-26 20:05:00,61.1,39.0,30.19,West,278,3.0,3.0,44,0.00,,---,0.00,VWS V14.01,2013-05-27 00:05:00,
2013-05-26 20:10:00,60.8,39.9,30.19,NW,316,0.0,1.0,46,0.00,,---,0.00,VWS V14.01,2013-05-27 00:10:00,
2013-05-26 20:15:00,60.5,40.2,30.19,NW,316,1.0,1.0,47,0.00,,---,0.00,VWS V14.01,2013-05-27 00:15:00,
2013-05-26 20:20:00,60.1,39.3,30.19,NW,316,1.0,2.0,46,0.00,,---,0.00,VWS V14.01,2013-05-27 00:20:00,
2013-05-26 20:25:00,59.6,39.4,30.19,NW,317,2.0,2.0,47,0.00,,---,0.00,VWS V14.01,2013-05-27 00:25:00,
2013-05-26 20:30:00,59.0,39.4,30.19,NW,314,1.0,2.0,48,0.00,,---,0.00,VWS V14.01,2013-05-27 00:30:00,
2013-05-26 20:35:00,58.5,39.9,30.19,NW,314,1.0,1.0,50,0.00,,---,0.00,VWS V14.01,2013-05-27 00:35:00,
2013-05-26 20:40:00,58.1,39.6,30.19,NW,314,0.0,1.0,50,0.00,,---,0.00,VWS V14.01,2013-05-27 00:40:00,
2013-05-26 20:45:00,57.7,39.2,30.20,NW,314,0.0,0.0,50,0.00,,---,0.00,VWS V14.01,2013-05-27 00:45:00,
2013-05-26 20:50:00,57.2,39.8,30.20,NW,314,1.0,1.0,52,0.00,,---,0.00,VWS V14.01,2013-05-27 00:50:00,
2013-05-26 20:55:00,56.7,38.8,30.20,NW,314,0.0,0.0,51,0.00,,---,0.00,VWS V14.01,2013-05-27 00:55:00,
2013-05-26 21:00:00,56.3,40.4,30.20,NW,314,2.0,3.0,55,0.00,,---,0.00,VWS V14.01,2013-05-27 01:00:00,
2013-05-26 21:05:00,55.6,40.2,30.21,NW,314,3.0,3.0,56,0.00,,---,0.00,VWS V14.01,2013-05-27 01:05:00,
2013-05-26 21:10:00,55.1,40.2,30.21,NW,314,1.0,2.0,57,0.00,,---,0.00,VWS V14.01,2013-05-27 01:10:00,
2013-05-26 21:15:00,54.7,39.8,30.21,NW,314,2.0,2.0,57,0.00,,---,0.00,VWS V14.01,2013-05-27 01:15:00,
2013-05-26 21:20:00,54.5,40.5,30.21,NW,314,2.0,2.0,59,0.00,,---,0.00,VWS V14.01,2013-05-27 01:20:00,
2013-05-26 21:25:00,54.4,40.4,30.21,NW,314,1.0,1.0,59,0.00,,---,0.00,VWS V14.01,2013-05-27 01:25:00,
2013-05-26 21:30:00,54.2,40.2,30.22,NW,314,0.0,0.0,59,0.00,,---,0.00,VWS V14.01,2013-05-27 01:30:00,
2013-05-26 21:35:00,54.1,40.5,30.22,NW,314,0.0,0.0,60,0.00,,---,0.00,VWS V14.01,2013-05-27 01:35:00,
2013-05-26 21:40:00,53.9,40.8,30.22,NW,314,0.0,0.0,61,0.00,,---,0.00,VWS V14.01,2013-05-27 01:40:00,
2013-05-26 21:45:00,53.6,41.3,30.22,NW,314,0.0,0.0,63,0.00,,---,0.00,VWS V14.01,2013-05-27 01:45:00,
2013-05-26 21:50:00,53.3,41.8,30.22,NW,314,0.0,0.0,65,0.00,,---,0.00,VWS V14.01,2013-05-27 01:50:00,
2013-05-26 21:55:00,52.7,40.9,30.22,NW,314,1.0,1.0,64,0.00,,---,0.00,VWS V14.01,2013-05-27 01:55:00,
2013-05-26 22:00:00,52.3,41.3,30.22,NW,314,1.0,1.0,66,0.00,,---,0.00,VWS V14.01,2013-05-27 02:00:00,
2013-05-26 22:05:00,51.9,41.3,30.23,NW,314,1.0,1.0,67,0.00,,---,0.00,VWS V14.01,2013-05-27 02:05:00,
2013-05-26 22:10:00,51.7,40.7,30.23,NW,314,1.0,1.0,66,0.00,,---,0.00,VWS V14.01,2013-05-27 02:10:00,
2013-05-26 22:15:00,51.7,40.7,30.23,NW,314,1.0,1.0,66,0.00,,---,0.00,VWS V14.01,2013-05-27 02:15:00,
2013-05-26 22:20:00,51.9,40.9,30.23,NW,314,1.0,2.0,66,0.00,,---,0.00,VWS V14.01,2013-05-27 02:20:00,
2013-05-26 22:25:00,52.0,40.6,30.23,NW,314,0.0,0.0,65,0.00,,---,0.00,VWS V14.01,2013-05-27 02:25:00,
2013-05-26 22:30:00,52.1,40.7,30.23,NW,314,0.0,0.0,65,0.00,,---,0.00,VWS V14.01,2013-05-27 02:30:00,
2013-05-26 22:35:00,52.2,41.2,30.23,NW,314,0.0,0.0,66,0.00,,---,0.00,VWS V14.01,2013-05-27 02:35:00,
2013-05-26 22:40:00,52.1,41.9,30.23,NW,314,0.0,0.0,68,0.00,,---,0.00,VWS V14.01,2013-05-27 02:40:00,
2013-05-26 22:45:00,51.9,41.7,30.24,NW,314,0.0,0.0,68,0.00,,---,0.00,VWS V14.01,2013-05-27 02:45:00,
2013-05-26 22:50:00,51.5,41.3,30.24,NW,314,0.0,0.0,68,0.00,,---,0.00,VWS V14.01,2013-05-27 02:50:00,
2013-05-26 22:55:00,51.1,41.3,30.24,NW,314,0.0,0.0,69,0.00,,---,0.00,VWS V14.01,2013-05-27 02:55:00,
2013-05-26 23:00:00,50.8,41.0,30.24,NW,314,0.0,0.0,69,0.00,,---,0.00,VWS V14.01,2013-05-27 03:00:00,
2013-05-26 23:05:00,50.6,40.8,30.24,NW,314,0.0,0.0,69,0.00,,---,0.00,VWS V14.01,2013-05-27 03:05:00,
2013-05-26 23:10:00,50.4,41.0,30.24,NW,314,0.0,0.0,70,0.00,,---,0.00,VWS V14.01,2013-05-27 03:10:00,
2013-05-26 23:15:00,50.2,40.8,30.25,NW,314,0.0,0.0,70,0.00,,---,0.00,VWS V14.01,2013-05-27 03:15:00,
2013-05-26 23:20:00,49.9,40.9,30.25,NW,314,0.0,0.0,71,0.00,,---,0.00,VWS V14.01,2013-05-27 03:20:00,
2013-05-26 23:25:00,49.7,41.0,30.25,NW,314,0.0,0.0,72,0.00,,---,0.00,VWS V14.01,2013-05-27 03:25:00,
2013-05-26 23:30:00,49.4,41.1,30.25,NW,314,0.0,0.0,73,0.00,,---,0.00,VWS V14.01,2013-05-27 03:30:00,
2013-05-26 23:35:00,49.2,40.9,30.25,NW,314,0.0,0.0,73,0.00,,---,0.00,VWS V14.01,2013-05-27 03:35:00,
2013-05-26 23:40:00,49.1,41.5,30.25,NW,314,0.0,0.0,75,0.00,,---,0.00,VWS V14.01,2013-05-27 03:40:00,
2013-05-26 23:45:00,48.8,40.9,30.25,NW,314,1.0,1.0,74,0.00,,---,0.00,VWS V14.01,2013-05-27 03:45:00,
2013-05-26 23:50:00,48.5,41.0,30.25,NW,314,0.0,1.0,75,0.00,,---,0.00,VWS V14.01,2013-05-27 03:50:00,
2013-05-26 23:55:00,48.1,40.6,30.25,NW,314,0.0,0.0,75,0.00,,---,0.00,VWS V14.01,2013-05-27 03:55:00,